This is the latest recevied weather packets stored in our database for station/object WB8SKP-WX. If no packets are shown the sender has not sent any weather packets the latest 10 day(s).
| Time | Temp. | Humidity | Pressure | Rain* | Wind** | Luminosity | Snow |
|---|---|---|---|---|---|---|---|
| 1777623377 | 7.78° C | 99% | 995.9 hPa | 0 mm | - | - | - |
| 1777622147 | 8.33° C | 99% | 995.8 hPa | 0 mm | - | - | - |
| 1777620947 | 8.33° C | 99% | 995.9 hPa | 0 mm | - | - | - |
| 1777619791 | 8.33° C | 99% | 995.9 hPa | 0 mm | - | - | - |
| 1777619747 | 8.33° C | 99% | 995.9 hPa | 0 mm | - | - | - |
| 1777618610 | 8.89° C | 99% | 996.2 hPa | 0 mm | - | - | - |
| 1777618517 | 8.89° C | 99% | 996.2 hPa | 0 mm | - | - | - |
| 1777617357 | 9.44° C | 99% | 996.5 hPa | 0 mm | - | - | - |
| 1777617317 | 9.44° C | 99% | 996.5 hPa | 0 mm | - | - | - |
| 1777616155 | 9.44° C | 98% | 996.6 hPa | 0 mm | - | - | - |
| 1777616117 | 9.44° C | 98% | 996.6 hPa | 0 mm | - | - | - |
| 1777614917 | 9.44° C | 97% | 996.9 hPa | 0 mm | - | - | - |
| 1777613717 | 9.44° C | 96% | 996.9 hPa | 0 mm | - | - | - |
| 1777612517 | 10° C | 96% | 997 hPa | 0 mm | - | - | - |
| 1777611287 | 10.56° C | 96% | 996.9 hPa | 0 mm | - | - | - |
| 1777610087 | 10.56° C | 94% | 997 hPa | 0 mm | - | - | - |
| 1777608887 | 10.56° C | 94% | 997 hPa | 0 mm | - | - | - |
| 1777607657 | 10.56° C | 92% | 997 hPa | 0 mm | - | - | - |
| 1777606457 | 10.56° C | 91% | 997 hPa | 0 mm | - | - | - |
| 1777605257 | 11.11° C | 88% | 997.2 hPa | 0 mm | - | - | - |
| 1777604027 | 11.67° C | 84% | 997.3 hPa | 0 mm | - | - | - |
| 1777602827 | 11.67° C | 82% | 997.3 hPa | 0 mm | - | - | - |
| 1777601627 | 12.22° C | 78% | 996.9 hPa | 0 mm | - | - | - |
| 1777600397 | 12.22° C | 81% | 996.7 hPa | 0 mm | - | - | - |
| 1777599197 | 12.22° C | 79% | 996.4 hPa | 0 mm | - | - | - |
* Rain latest hour (hover to see other rain measurements)
** Current wind speed in m/s (hover to see current wind gust speed)